Regional Weather Roundup
Issued by NWS Sterling, VA

Home | Current Version | Previous Version | Graphics & Text | Print | Product List | Glossary On
Versions: 1 2 3 4 5 6 7 8 9 10 11 12 13 14 15 16 17 18 19 20 21 22 23 24 25 26 27 28 29 30 31 32 33 34 35 36 37 38 39 40 41 42 43 44 45 46 47 48 49 50
000
ASUS41 KLWX 231110
RWRLWX

REGIONAL WEATHER ROUNDUP
NATIONAL WEATHER SERVICE BALTIMORE MD/WASHINGTON DC
700 AM EDT TUE SEP 23 2014

Note: "FAIR" indicates few or no clouds below 12,000 feet
with no significant weather and/or obstructions to visibility.
 TC=TEMPERATURE CELSIUS

 * =Non NWS site. Station does not report precipitation (e.g. rain,
    snow, etc.), thunder, or fog.

DCZ001-MDZ009-015-VAZ040>042-051-053>054-231200-
WASHINGTON METRO

CITY           SKY/WX    TMP DP  RH WIND       PRES   REMARKS
WASHINGTON NAT PTCLDY    54  42  64 N8        30.32R
DULLES         PTCLDY    43  39  86 CALM      30.32R
ANDREWS AFB    PTCLDY    47  41  80 N8        30.30R
QUANTICO       PTCLDY    53  40  61 N9        30.32R
COLLEGE PARK*  PTCLDY    46  45  93 CALM      30.31R
LEESBURG*      CLEAR     45  43  93 N3        30.33R
GAITHERSBURG*  CLEAR     45  39  81 CALM      30.35R

$$

MDZ006>007-011-014-231200-
BALTIMORE METRO

CITY           SKY/WX    TMP DP  RH WIND       PRES   REMARKS
BWI AIRPORT    PTCLDY    47  42  83 NW3       30.31R
MD SCIENCE CTR   N/A     54  42  64 MISG      30.31R
MARTIN STATE   PTCLDY    48  46  93 CALM      30.32R
ANNAPOLIS      PTCLDY    52  47  83 MISG      30.30R
FORT MEADE*    CLEAR     43  41  93 CALM      30.33R

$$

MDZ012-015-019>023-231200-
MARYLAND EASTERN SHORE

CITY           SKY/WX    TMP DP  RH WIND       PRES   REMARKS
OCEAN CITY     PTCLDY    50  44  80 NW6       30.27R
SALISBURY      PTCLDY    49  43  80 NW3       30.28R
BAY BRIDGE AP*   N/A     55  41  58 N6        30.31R
CAMBRIDGE*     PTCLDY    52  43  71 CALM      30.29R
EASTON*        CLEAR     48  48 100 CALM      30.33R

$$

MDZ017>025-231200-
SOUTHERN MARYLAND

CITY           SKY/WX    TMP DP  RH WIND       PRES   REMARKS
PATUXENT RIVER MOCLDY    58  43  57 NE13      30.29R
ST INIGOES     CLOUDY    58  42  55 N6        30.28R
LEONARDTOWN*   CLOUDY    52  45  76 CALM      30.31R

$$

MDZ003>005-231200-
NORTH CENTRAL MARYLAND

CITY           SKY/WX    TMP DP  RH WIND       PRES   REMARKS
FREDERICK*     CLEAR     46  45  93 CALM      30.35R
HAGERSTOWN APT CLEAR     45  39  79 CALM      30.32R
WESTMINSTER*   CLEAR     45  41  87 CALM      30.31R

$$

MDZ501>502-231200-
WESTERN MARYLAND

CITY           SKY/WX    TMP DP  RH WIND       PRES   REMARKS
OAKLAND*         N/A     37 N/A N/A CALM      30.31R FOG
CUMBERLAND*    CLEAR     41  37  87 N5        30.38R

$$

VAZ025>031-231200-
SHENANDOAH VALLEY

CITY           SKY/WX    TMP DP  RH WIND       PRES   REMARKS
WINCHESTER*    CLEAR     43  39  87 N5        30.32S
STAUNTON*      PTCLDY    41  38  87 CALM      30.34R

$$

WVZ021-048>050-054>055-231200-
EASTERN WEST VIRGINIA PANHANDLE

CITY           SKY/WX    TMP DP  RH WIND       PRES   REMARKS
MARTINSBURG    CLEAR     43  38  82 W3        30.34R
PETERSBURG*    FOG       36  35  93 CALM      30.36R VSB 1/2

$$

VAZ036>039-050-231200-
CENTRAL FOOTHILLS

CITY           SKY/WX    TMP DP  RH WIND       PRES   REMARKS
CHARLOTTESVILL PTCLDY    48  43  82 CALM      30.31R
ORANGE*        PTCLDY    46  41  81 NE6       30.32R

$$

VAZ055>057-231200-
NORTH AND CENTRAL PIEDMONT

CITY           SKY/WX    TMP DP  RH WIND       PRES   REMARKS
FREDERICKSBRG* MOCLDY    51  44  78 NW3       30.30R
STAFFORD*      PTCLDY    47  42  83 NW5       30.36R

$$

NCZ024-NYZ072-PAZ021-071-VAZ022-071-231200-
OTHER REGIONAL OBSERVATIONS

CITY           SKY/WX    TMP DP  RH WIND       PRES   REMARKS
NEW YORK CITY  CLEAR     53  39  59 N6        30.31R
PHILADELPHIA   PTCLDY    51  41  68 NW5       30.30R
PITTSBURGH     PTCLDY    40  37  89 CALM      30.33R
ROANOKE        PTCLDY    47  44  90 W3        30.32R
RICHMOND       MOCLDY    53  43  68 N8        30.28R
RALEIGH        CLOUDY    58  47  66 NE9G16    30.25R

$$

ANZ530>537-231200-
MARINE OBSERVATIONS

STATION/POSITION TIME  TEMP    WIND        PRES
                       AIR SEA DIR/SP/G
                 (UTC) (F)     (DEG/KT/KT) (MB)
THOMAS PT LIGHT  1100   56 72  330/ 11/ 13 1027.0R
BALT KEY BRIDGE  1100   56     330/  9/ 11 1025.8R
COVE POINT       1100   58      70/ 16/ 19 1025.3S
LEWISETTA        1100   60 71   50/ 10/ 16 1024.9R
SOLOMONS ISLAND  1100      74                N/A
PINEY POINT      1100           10/  7/  7   N/A

$$



USA.gov is the U.S. government's official web portal to all federal, state and local government web resources and services.